Location: Tel Aviv
(32.0670°N, 34.7670°E)
Time: 12:05:49
(UTC+02:00)

Vanguard 3 - Visible Passes

Search period start: 05 December 2023 00:00
Search period end: 15 December 2023 00:00
Orbit: 507 x 3241 km, 33.3° (Epoch: 04 December)

Date Brightness Start Highest point End Pass type
(mag) Time Alt. Az. Time Alt. Az. Time Alt. Az.
05 Dec 10.9 16:44:20 10° S 16:52:28 14° SE 16:59:36 10° ESE visible
05 Dec 9.7 18:52:12 10° SSW 19:07:32 39° SSE 19:10:00 36° SE visible
05 Dec 10.2 21:07:18 10° WSW 21:14:19 31° WSW 21:14:19 31° WSW visible
06 Dec 10.3 17:34:20 10° SSW 17:48:37 28° SSE 17:57:35 15° ESE visible
06 Dec 9.4 19:47:11 10° SW 20:01:55 55° S 20:01:55 55° S visible
06 Dec 10.9 22:04:07 10° WSW 22:06:15 15° WSW 22:06:15 15° WSW visible
07 Dec 9.7 18:27:50 10° SW 18:44:36 44° SSE 18:49:30 34° ESE visible
07 Dec 9.8 20:43:26 10° WSW 20:53:49 44° WSW 20:53:49 44° WSW visible
08 Dec 10.4 17:09:46 10° SSW 17:25:29 32° SE 17:37:03 11° E visible
08 Dec 9.2 19:23:05 10° SW 19:40:32 63° SSE 19:41:23 62° SE visible
08 Dec 10.6 21:40:28 10° W 21:45:42 24° W 21:45:42 24° W visible
09 Dec 9.8 18:03:36 10° SW 18:21:30 49° SSE 18:28:55 29° E visible
09 Dec 9.4 20:19:31 10° WSW 20:33:14 61° WSW 20:33:14 61° WSW visible
10 Dec 10.5 16:45:26 10° SSW 17:02:11 36° SE 17:15:28 10° E visible
10 Dec 9.2 18:59:02 10° SW 19:17:31 68° SSE 19:20:45 56° ESE visible
10 Dec 10.2 21:16:43 10° W 21:25:04 35° W 21:25:04 35° W visible
11 Dec 10.0 17:39:30 10° SW 17:58:12 54° SSE 18:08:14 23° E visible
11 Dec 9.2 19:55:37 10° WSW 20:12:34 80° SW 20:12:34 80° SW visible
11 Dec 10.9 22:14:03 10° W 22:16:53 17° W 22:16:53 17° W visible
12 Dec 9.4 18:35:04 10° WSW 18:54:20 72° SSE 19:00:02 45° E visible
12 Dec 9.8 20:52:54 10° W 21:04:21 48° W 21:04:21 48° W visible
13 Dec 10.1 17:15:33 10° SW 17:34:45 58° SSE 17:47:28 17° E visible
13 Dec 9.1 19:31:43 10° WSW 19:50:34 88° SSE 19:51:47 79° E visible
13 Dec 10.6 21:50:20 10° W 21:56:06 26° W 21:56:06 26° W visible
14 Dec 9.7 18:11:11 10° WSW 18:31:01 76° SSE 18:39:13 35° E visible
14 Dec 9.5 20:29:03 10° W 20:43:31 63° W 20:43:31 63° W visible
14 Dec 11.2 22:47:32 10° WNW 22:47:50 11° WNW 22:47:50 11° WNW visible
